Hourly Weather Rvy

Today, 14 April, Wednesday

Time Temperature Precipitation Wind Pressure Humidity
00:00 +11°C° 0 mm 4 mps 744 mmHg 61%
01:00 +11°C° 0 mm 4 mps 744 mmHg 66%
02:00 +10°C° 0 mm 4 mps 744 mmHg 71%
03:00 +10°C° 0 mm 3 mps 744 mmHg 77%
04:00 +9°C° 0 mm 3 mps 743 mmHg 81%
05:00 +9°C° 0 mm 3 mps 743 mmHg 85%
06:00 +9°C° 0 mm 2 mps 743 mmHg 90%
07:00 +10°C° 0 mm 3 mps 743 mmHg 85%
08:00 +11°C° 0 mm 3 mps 743 mmHg 79%
09:00 +13°C° 0 mm 3 mps 743 mmHg 74%
10:00 +14°C° 0 mm 3 mps 743 mmHg 68%
11:00 +16°C° 0 mm 3 mps 743 mmHg 62%
12:00 +17°C° 0 mm 3 mps 743 mmHg 55%
13:00 +18°C° 0 mm 4 mps 742 mmHg 47%
14:00 +19°C° 0 mm 4 mps 742 mmHg 39%
15:00 +20°C° 0 mm 4 mps 742 mmHg 31%
16:00 +19°C° 0 mm 4 mps 741 mmHg 33%
17:00 +18°C° 0 mm 3 mps 741 mmHg 35%
18:00 +18°C° 0 mm 3 mps 741 mmHg 38%
19:00 +17°C° 0 mm 2 mps 741 mmHg 41%
20:00 +15°C° 0 mm 2 mps 741 mmHg 43%
21:00 +14°C° 0 mm 2 mps 741 mmHg 46%
22:00 +13°C° 0 mm 2 mps 741 mmHg 48%
23:00 +13°C° 0 mm 2 mps 741 mmHg 49%

Tomorrow, 15 April, Thursday

Time Temperature Precipitation Wind Pressure Humidity
00:00 +12°C° 0 mm 2 mps 740 mmHg 50%
01:00 +12°C° 0 mm 2 mps 740 mmHg 53%
02:00 +10°C° 0 mm 2 mps 740 mmHg 56%
03:00 +10°C° 0 mm 2 mps 740 mmHg 59%
04:00 +10°C° 0 mm 2 mps 740 mmHg 61%
05:00 +9°C° 0 mm 2 mps 740 mmHg 63%
06:00 +9°C° 0 mm 2 mps 740 mmHg 66%
07:00 +10°C° 0 mm 2 mps 740 mmHg 63%
08:00 +11°C° 0 mm 3 mps 740 mmHg 60%
09:00 +12°C° 0 mm 3 mps 740 mmHg 57%
10:00 +13°C° 0 mm 3 mps 740 mmHg 53%
11:00 +16°C° 0 mm 3 mps 740 mmHg 49%
12:00 +17°C° 0 mm 3 mps 740 mmHg 44%
13:00 +17°C° 0 mm 3 mps 740 mmHg 43%
14:00 +18°C° 0 mm 3 mps 740 mmHg 42%
15:00 +18°C° 0 mm 4 mps 740 mmHg 41%
16:00 +17°C° 0 mm 3 mps 739 mmHg 46%
17:00 +17°C° 0 mm 3 mps 739 mmHg 51%
18:00 +16°C° 0 mm 2 mps 739 mmHg 55%
19:00 +14°C° 0 mm 3 mps 739 mmHg 59%
20:00 +13°C° 0 mm 4 mps 739 mmHg 63%
21:00 +12°C° 0 mm 4 mps 739 mmHg 68%
22:00 +11°C° 0 mm 4 mps 739 mmHg 71%
23:00 +11°C° 0 mm 3 mps 739 mmHg 74%

Day after tomorrow, 16 April, Friday

Time Temperature Precipitation Wind Pressure Humidity
00:00 +10°C° 0 mm 3 mps 740 mmHg 77%
01:00 +10°C° 0.1 mm 3 mps 740 mmHg 79%
02:00 +10°C° 0.1 mm 3 mps 740 mmHg 81%
03:00 +10°C° 0.1 mm 4 mps 740 mmHg 83%
04:00 +10°C° 0.1 mm 4 mps 740 mmHg 84%
05:00 +8°C° 0.1 mm 4 mps 740 mmHg 85%
06:00 +8°C° 0.1 mm 4 mps 741 mmHg 85%
07:00 +8°C° 0 mm 4 mps 741 mmHg 82%
08:00 +9°C° 0 mm 5 mps 741 mmHg 80%
09:00 +10°C° 0 mm 6 mps 741 mmHg 77%
10:00 +11°C° 0.1 mm 6 mps 742 mmHg 73%
11:00 +13°C° 0.1 mm 6 mps 742 mmHg 70%
12:00 +14°C° 0.1 mm 6 mps 742 mmHg 66%
13:00 +14°C° 0 mm 7 mps 742 mmHg 64%
14:00 +15°C° 0 mm 7 mps 742 mmHg 63%
15:00 +15°C° 0 mm 7 mps 742 mmHg 62%
16:00 +15°C° 1.1 mm 7 mps 742 mmHg 64%
17:00 +14°C° 1.1 mm 6 mps 742 mmHg 67%
18:00 +13°C° 1.1 mm 6 mps 742 mmHg 70%
19:00 +11°C° 1.3 mm 6 mps 742 mmHg 74%
20:00 +11°C° 1.3 mm 6 mps 743 mmHg 78%
21:00 +10°C° 1.3 mm 6 mps 743 mmHg 82%
22:00 +9°C° 0.5 mm 6 mps 743 mmHg 83%
23:00 +9°C° 0.5 mm 6 mps 743 mmHg 85%

17 April, Saturday

Time Temperature Precipitation Wind Pressure Humidity
00:00 +8°C° 0.5 mm 6 mps 744 mmHg 86%
01:00 +7°C° 0 mm 6 mps 744 mmHg 88%
02:00 +7°C° 0 mm 5 mps 744 mmHg 89%
03:00 +6°C° 0 mm 5 mps 744 mmHg 91%
04:00 +6°C° 0 mm 5 mps 744 mmHg 91%
05:00 +6°C° 0 mm 5 mps 744 mmHg 91%
06:00 +5°C° 0 mm 5 mps 744 mmHg 92%
07:00 +5°C° 0 mm 6 mps 745 mmHg 87%
08:00 +7°C° 0 mm 6 mps 745 mmHg 83%
09:00 +8°C° 0 mm 7 mps 745 mmHg 78%
10:00 +9°C° 0 mm 7 mps 745 mmHg 73%
11:00 +10°C° 0 mm 8 mps 745 mmHg 68%
12:00 +11°C° 0 mm 8 mps 745 mmHg 63%
13:00 +12°C° 0 mm 8 mps 745 mmHg 61%
14:00 +12°C° 0 mm 8 mps 745 mmHg 59%
15:00 +13°C° 0 mm 8 mps 745 mmHg 56%
16:00 +12°C° 0 mm 8 mps 745 mmHg 56%
17:00 +12°C° 0 mm 8 mps 745 mmHg 57%
18:00 +12°C° 0 mm 7 mps 745 mmHg 57%
19:00 +11°C° 0 mm 7 mps 745 mmHg 57%
20:00 +10°C° 0 mm 7 mps 745 mmHg 57%
21:00 +8°C° 0 mm 7 mps 746 mmHg 57%
22:00 +8°C° 0 mm 7 mps 746 mmHg 58%
23:00 +7°C° 0 mm 6 mps 746 mmHg 58%

18 April, Sunday

Time Temperature Precipitation Wind Pressure Humidity
00:00 +5°C° 0 mm 6 mps 746 mmHg 59%
01:00 +5°C° 0 mm 6 mps 746 mmHg 60%
02:00 +5°C° 0 mm 6 mps 746 mmHg 61%
03:00 +5°C° 0 mm 6 mps 747 mmHg 62%
04:00 +5°C° 0 mm 5 mps 747 mmHg 63%
05:00 +5°C° 0 mm 5 mps 747 mmHg 64%
06:00 +5°C° 0 mm 5 mps 747 mmHg 65%
07:00 +5°C° 0 mm 5 mps 747 mmHg 65%
08:00 +5°C° 0 mm 5 mps 747 mmHg 65%
09:00 +5°C° 0 mm 5 mps 748 mmHg 65%
10:00 +7°C° 0 mm 5 mps 748 mmHg 59%
11:00 +9°C° 0 mm 6 mps 748 mmHg 53%
12:00 +10°C° 0 mm 6 mps 748 mmHg 47%
13:00 +11°C° 0 mm 6 mps 748 mmHg 44%
14:00 +13°C° 0 mm 6 mps 748 mmHg 41%
15:00 +13°C° 0 mm 6 mps 748 mmHg 39%
16:00 +13°C° 0 mm 5 mps 748 mmHg 40%
17:00 +13°C° 0 mm 5 mps 748 mmHg 42%
18:00 +12°C° 0 mm 4 mps 748 mmHg 43%
19:00 +11°C° 0 mm 4 mps 749 mmHg 48%
20:00 +9°C° 0 mm 3 mps 749 mmHg 53%
21:00 +8°C° 0 mm 3 mps 749 mmHg 58%
22:00 +7°C° 0 mm 3 mps 749 mmHg 62%
23:00 +7°C° 0 mm 3 mps 749 mmHg 66%

19 April, Monday

Time Temperature Precipitation Wind Pressure Humidity
00:00 +5°C° 0 mm 4 mps 750 mmHg 70%
01:00 +5°C° 0 mm 3 mps 750 mmHg 73%
02:00 +4°C° 0 mm 3 mps 750 mmHg 75%
03:00 +4°C° 0 mm 3 mps 750 mmHg 78%
04:00 +4°C° 0 mm 3 mps 750 mmHg 79%
05:00 +3°C° 0 mm 3 mps 750 mmHg 80%
06:00 +3°C° 0 mm 3 mps 751 mmHg 81%
07:00 +5°C° 0 mm 3 mps 751 mmHg 74%
08:00 +6°C° 0 mm 4 mps 751 mmHg 67%
09:00 +8°C° 0 mm 5 mps 751 mmHg 60%
10:00 +9°C° 0 mm 5 mps 751 mmHg 56%
11:00 +10°C° 0 mm 5 mps 752 mmHg 51%
12:00 +12°C° 0 mm 5 mps 752 mmHg 47%
13:00 +12°C° 0 mm 5 mps 752 mmHg 46%
14:00 +13°C° 0 mm 5 mps 751 mmHg 45%
15:00 +13°C° 0 mm 4 mps 751 mmHg 43%
16:00 +12°C° 0 mm 5 mps 751 mmHg 47%
17:00 +12°C° 0 mm 5 mps 751 mmHg 51%
18:00 +10°C° 0 mm 5 mps 751 mmHg 55%
19:00 +10°C° 0 mm 4 mps 751 mmHg 56%
20:00 +10°C° 0 mm 4 mps 752 mmHg 57%
21:00 +9°C° 0 mm 3 mps 752 mmHg 59%
22:00 +9°C° 0 mm 3 mps 752 mmHg 58%
23:00 +9°C° 0 mm 3 mps 752 mmHg 58%
Show more